Princeton, MN

1:57 PM CST on November 11, 2019 (GMT -0600)
Princeton Municipal

Weather History for KPNM - June, 2019

Change the Weather History Date:

Sunday, June 9, 2019

  Actual Average Record
Temperature  
Mean Temperature 62 °F -  
Max Temperature 71 °F 72 °F 89 °F (2012)
Min Temperature 50 °F 49 °F 33 °F (2005)
Degree Days  
Heating Degree Days 3    
Growing Degree Days 12 (Base 50)    
Moisture  
Dew Point 52 °F    
Average Humidity 63    
Maximum Humidity 83    
Minimum Humidity 45    
Precipitation  
Precipitation 0.00 in - - ()
Sea Level Pressure  
Sea Level Pressure 30.03 in    
Wind  
Wind Speed 8 mph (West)    
Max Wind Speed 17 mph    
Max Gust Speed 29 mph    
Visibility 10 miles    
Events Rain    
Averages and records for this station are not official NWS values.
T = Trace of Precipitation, MM = Missing Value Source: NWS Daily Summary

Daily Weather History Graph

Daily Weather History Graph

Search for Another Location

Airport or City:

Astronomy

Jun. 09, 2019 Rise Set
Actual Time 5:25 AM CDT 9:01 PM CDT
Civil Twilight 4:48 AM CDT 9:39 PM CDT
Nautical Twilight 3:58 AM CDT 10:29 PM CDT
Astronomical Twilight 2:51 AM CDT 11:36 PM CDT
Moon 12:16 PM CDT (6/9) 1:32 AM CDT (6/9)
Length of Visible Light 16h 51m
Length of Day
15h 36m
Waxing Crescent, 44% of the Moon is Illuminated
Jun 9
Waxing Crescent
Jun 10
First Quarter
Jun 17
Full
Jun 25
Last Quarter
Jul 2
New

Hourly Weather History & Observations

Time (CDT) Temp. Dew Point Humidity Pressure Visibility Wind Dir Wind Speed Gust Speed Precip Events Conditions
12:15 AM 71.6 °F 53.6 °F 53% 29.92 in 10.0 mi SE 5.8 mph - N/A   Clear
12:16 AM 71.6 °F 53.6 °F 53% 29.92 in 10.0 mi SE 5.8 mph - N/A   Clear
12:35 AM 71.6 °F 53.6 °F 53% 29.92 in 10.0 mi SE 5.8 mph - N/A   Clear
12:36 AM 71.6 °F 53.6 °F 53% 29.92 in 10.0 mi SE 5.8 mph - N/A   Clear
12:59 AM 71.6 °F 53.6 °F 53% 29.92 in 10.0 mi SE 6.9 mph - N/A   Clear
1:17 AM 71.6 °F 53.6 °F 53% 29.91 in 10.0 mi SE 6.9 mph - N/A   Clear
1:35 AM 71.6 °F 51.8 °F 50% 29.91 in 10.0 mi SE 6.9 mph - N/A   Clear
1:55 AM 71.6 °F 51.8 °F 50% 29.91 in 10.0 mi SE 6.9 mph - N/A   Clear
1:56 AM 71.6 °F 51.8 °F 50% 29.91 in 10.0 mi SE 6.9 mph - N/A   Clear
2:15 AM 69.8 °F 51.8 °F 53% 29.90 in 10.0 mi SE 5.8 mph - N/A   Clear
2:20 AM 69.8 °F 51.8 °F 53% 29.91 in 10.0 mi SE 8.1 mph - N/A   Clear
2:37 AM 69.8 °F 51.8 °F 53% 29.91 in 10.0 mi SSE 4.6 mph - N/A   Clear
2:56 AM 69.8 °F 51.8 °F 53% 29.91 in 10.0 mi SSE 5.8 mph - N/A   Scattered Clouds
3:15 AM 71.6 °F 51.8 °F 50% 29.91 in 10.0 mi SE 5.8 mph - N/A   Mostly Cloudy
3:16 AM 71.6 °F 51.8 °F 50% 29.91 in 10.0 mi SE 6.9 mph - N/A   Mostly Cloudy
3:35 AM 68.0 °F 53.6 °F 60% 29.91 in 10.0 mi East 3.5 mph - N/A   Overcast
3:59 AM 66.2 °F 53.6 °F 64% 29.92 in 10.0 mi ESE 3.5 mph - N/A   Scattered Clouds
4:17 AM 69.8 °F 53.6 °F 56% 29.92 in 10.0 mi SE 6.9 mph - N/A   Scattered Clouds
4:35 AM 69.8 °F 53.6 °F 56% 29.92 in 10.0 mi SSE 5.8 mph - N/A   Mostly Cloudy
4:36 AM 69.8 °F 53.6 °F 56% 29.92 in 10.0 mi SSE 5.8 mph - N/A   Mostly Cloudy
4:55 AM 66.2 °F 53.6 °F 64% 29.93 in 10.0 mi South 4.6 mph - N/A   Scattered Clouds
4:56 AM 66.2 °F 53.6 °F 64% 29.93 in 10.0 mi South 4.6 mph - N/A   Scattered Clouds
5:15 AM 68.0 °F 53.6 °F 60% 29.93 in 10.0 mi South 4.6 mph - N/A   Scattered Clouds
5:20 AM 68.0 °F 53.6 °F 60% 29.93 in 10.0 mi South 5.8 mph - N/A   Scattered Clouds
5:38 AM 66.2 °F 55.4 °F 68% 29.93 in 10.0 mi SSE 3.5 mph - N/A   Scattered Clouds
5:56 AM 66.2 °F 55.4 °F 68% 29.93 in 10.0 mi SSE 4.6 mph - N/A   Scattered Clouds
6:15 AM 68.0 °F 55.4 °F 64% 29.94 in 10.0 mi SSE 3.5 mph - N/A   Mostly Cloudy
6:16 AM 68.0 °F 55.4 °F 64% 29.94 in 10.0 mi SSE 3.5 mph - N/A   Mostly Cloudy
6:35 AM 68.0 °F 55.4 °F 64% 29.94 in 10.0 mi Calm Calm - N/A   Scattered Clouds
6:36 AM 68.0 °F 55.4 °F 64% 29.94 in 10.0 mi Calm Calm - N/A   Scattered Clouds
6:59 AM 69.8 °F 57.2 °F 64% 29.95 in 10.0 mi Calm Calm - N/A   Scattered Clouds
7:17 AM 69.8 °F 57.2 °F 64% 29.95 in 10.0 mi West 10.4 mph - N/A   Scattered Clouds
7:35 AM 68.0 °F 60.8 °F 78% 29.96 in 10.0 mi West 11.5 mph - N/A   Clear
7:55 AM 66.2 °F 60.8 °F 83% 29.97 in 10.0 mi West 10.4 mph - N/A   Clear
7:56 AM 66.2 °F 60.8 °F 83% 29.97 in 10.0 mi West 13.8 mph 18.4 mph N/A   Scattered Clouds
8:15 AM 64.4 °F 59.0 °F 83% 29.98 in 10.0 mi West 16.1 mph 23.0 mph N/A   Mostly Cloudy
8:20 AM 64.4 °F 59.0 °F 83% 29.98 in 10.0 mi West 11.5 mph 20.7 mph N/A   Mostly Cloudy
8:38 AM 66.2 °F 57.2 °F 73% 29.98 in 10.0 mi West 16.1 mph 26.5 mph N/A   Mostly Cloudy
8:56 AM 64.4 °F 57.2 °F 77% 29.99 in 10.0 mi WNW 16.1 mph 28.8 mph N/A   Mostly Cloudy
9:15 AM 66.2 °F 57.2 °F 73% 30.00 in 10.0 mi West 17.3 mph 25.3 mph N/A   Mostly Cloudy
9:35 AM 66.2 °F 55.4 °F 68% 30.01 in 10.0 mi WNW 15.0 mph 21.9 mph N/A   Scattered Clouds
9:36 AM 66.2 °F 55.4 °F 68% 30.01 in 10.0 mi WNW 16.1 mph 21.9 mph N/A   Scattered Clouds
9:59 AM 64.4 °F 55.4 °F 73% 30.02 in 10.0 mi WNW 13.8 mph 21.9 mph N/A   Overcast
10:17 AM 64.4 °F 55.4 °F 73% 30.04 in 10.0 mi WNW 15.0 mph 20.7 mph N/A   Overcast
10:35 AM 64.4 °F 55.4 °F 73% 30.04 in 10.0 mi WNW 12.7 mph 20.7 mph N/A   Overcast
10:55 AM 64.4 °F 55.4 °F 73% 30.05 in 10.0 mi WNW 13.8 mph 18.4 mph N/A   Overcast
11:15 AM 62.6 °F 55.4 °F 77% 30.04 in 10.0 mi WNW 10.4 mph 18.4 mph N/A   Overcast
11:38 AM 62.6 °F 55.4 °F 77% 30.04 in 10.0 mi WNW 12.7 mph 17.3 mph N/A   Scattered Clouds
11:56 AM 64.4 °F 55.4 °F 73% 30.05 in 10.0 mi NW 13.8 mph - N/A   Scattered Clouds
12:15 PM 64.4 °F 55.4 °F 73% 30.06 in 10.0 mi WNW 13.8 mph 18.4 mph N/A   Overcast
12:35 PM 62.6 °F 53.6 °F 72% 30.07 in 10.0 mi WNW 13.8 mph 19.6 mph N/A Rain Light Rain
12:36 PM 62.6 °F 53.6 °F 72% 30.07 in 10.0 mi WNW 15.0 mph 19.6 mph N/A Rain Light Rain
12:59 PM 60.8 °F 53.6 °F 77% 30.07 in 10.0 mi WNW 11.5 mph - N/A Rain Rain
1:17 PM 60.8 °F 53.6 °F 77% 30.09 in 10.0 mi WNW 12.7 mph 19.6 mph N/A   Drizzle
1:35 PM 60.8 °F 53.6 °F 77% 30.09 in 10.0 mi WNW 12.7 mph - N/A   Overcast
1:55 PM 62.6 °F 53.6 °F 72% 30.08 in 10.0 mi NW 11.5 mph 20.7 mph N/A Rain Light Rain
1:56 PM 62.6 °F 53.6 °F 72% 30.08 in 10.0 mi WNW 11.5 mph 20.7 mph N/A Rain Light Rain
2:15 PM 62.6 °F 51.8 °F 68% 30.08 in 10.0 mi WNW 13.8 mph 19.6 mph N/A   Mostly Cloudy
2:20 PM 62.6 °F 51.8 °F 68% 30.09 in 10.0 mi WNW 12.7 mph 19.6 mph N/A   Mostly Cloudy
2:38 PM 64.4 °F 51.8 °F 64% 30.09 in 10.0 mi NW 11.5 mph 17.3 mph N/A   Scattered Clouds
2:56 PM 62.6 °F 50.0 °F 63% 30.09 in 10.0 mi WNW 13.8 mph 20.7 mph N/A   Clear
3:15 PM 62.6 °F 50.0 °F 63% 30.10 in 10.0 mi NW 8.1 mph 16.1 mph N/A   Clear
3:16 PM 62.6 °F 50.0 °F 63% 30.10 in 10.0 mi WNW 8.1 mph 16.1 mph N/A   Clear
3:35 PM 64.4 °F 50.0 °F 59% 30.10 in 10.0 mi WNW 11.5 mph 18.4 mph N/A   Scattered Clouds
3:59 PM 64.4 °F 50.0 °F 59% 30.11 in 10.0 mi WNW 11.5 mph 18.4 mph N/A   Scattered Clouds
4:17 PM 64.4 °F 50.0 °F 59% 30.12 in 10.0 mi WNW 10.4 mph 18.4 mph N/A   Overcast
4:35 PM 64.4 °F 50.0 °F 59% 30.12 in 10.0 mi NW 12.7 mph - N/A   Mostly Cloudy
4:55 PM 66.2 °F 48.2 °F 52% 30.12 in 10.0 mi NW 15.0 mph 20.7 mph N/A   Clear
5:20 PM 66.2 °F 48.2 °F 52% 30.12 in 10.0 mi WNW 10.4 mph - N/A   Clear
5:38 PM 66.2 °F 48.2 °F 52% 30.12 in 10.0 mi NW 12.7 mph - N/A   Clear
5:56 PM 66.2 °F 48.2 °F 52% 30.12 in 10.0 mi NNW 13.8 mph 18.4 mph N/A   Scattered Clouds
6:15 PM 64.4 °F 48.2 °F 56% 30.12 in 10.0 mi NNW 11.5 mph 16.1 mph N/A   Scattered Clouds
6:35 PM 64.4 °F 48.2 °F 56% 30.12 in 10.0 mi NW 8.1 mph - N/A   Scattered Clouds
6:36 PM 66.2 °F 48.2 °F 52% 30.12 in 10.0 mi NW 8.1 mph - N/A   Scattered Clouds
6:59 PM 66.2 °F 46.4 °F 49% 30.12 in 10.0 mi NW 11.5 mph 17.3 mph N/A   Clear
7:17 PM 66.2 °F 46.4 °F 49% 30.12 in 10.0 mi WNW 11.5 mph 19.6 mph N/A   Clear
7:36 PM 66.2 °F 44.6 °F 46% 30.13 in 10.0 mi NW 11.5 mph - N/A   Clear
7:55 PM 66.2 °F 44.6 °F 46% 30.13 in 10.0 mi NW 8.1 mph - N/A   Clear
8:15 PM 64.4 °F 42.8 °F 45% 30.13 in 10.0 mi NW 9.2 mph - N/A   Clear
8:20 PM 64.4 °F 42.8 °F 45% 30.13 in 10.0 mi WNW 8.1 mph - N/A   Clear
8:38 PM 62.6 °F 42.8 °F 48% 30.14 in 10.0 mi WNW 4.6 mph - N/A   Clear
8:56 PM 60.8 °F 44.6 °F 55% 30.14 in 10.0 mi WNW 3.5 mph - N/A   Clear
9:15 PM 59.0 °F 44.6 °F 59% 30.14 in 10.0 mi Calm Calm - N/A   Clear
9:16 PM 57.2 °F 44.6 °F 63% 30.14 in 10.0 mi Calm Calm - N/A   Clear
9:35 PM 57.2 °F 46.4 °F 67% 30.15 in 10.0 mi Calm Calm - N/A   Clear
9:59 PM 53.6 °F 46.4 °F 77% 30.16 in 10.0 mi Calm Calm - N/A   Clear
10:17 PM 53.6 °F 46.4 °F 77% 30.16 in 10.0 mi West 3.5 mph - N/A   Clear
10:35 PM 53.6 °F 46.4 °F 77% 30.17 in 10.0 mi West 3.5 mph - N/A   Clear
10:36 PM 53.6 °F 46.4 °F 77% 30.17 in 10.0 mi West 3.5 mph - N/A   Clear
10:55 PM 53.6 °F 44.6 °F 72% 30.17 in 10.0 mi West 3.5 mph - N/A   Clear
11:15 PM 53.6 °F 44.6 °F 72% 30.18 in 10.0 mi Calm Calm - N/A   Clear
11:38 PM 53.6 °F 44.6 °F 72% 30.18 in 10.0 mi Calm Calm - N/A   Clear
11:56 PM 50.0 °F 44.6 °F 82% 30.18 in 10.0 mi Calm Calm - N/A   Clear